QPF
0.05 0.05 0.05 0.05 0.05 0.04 0.04 0.04 0.07 0.06 0.05 0.05 0.04 0.04 0.04 0.03 0.02 0.01 0.01 0.01 0.03 0.02 0.02 0.01 0.01 0.01 0.02 0.04 0.03 0.02 0.02 0.03 0.03 0.02 0.02 0.01 0.01 0.01
0.05 0.06 0.05 0.04 0.05 0.04 0.04 0.04 0.05 0.06 0.06 0.05 0.04 0.03 0.03 0.02 0.02 0.01 0.01 0.01 0.02 0.02 0.01 0.01 0.01 0.00 0.00 0.01 0.01 0.01 0.01 0.01 0.01 0.01 0.01 0.01 0.01 0.01
0.04 0.04 0.04 0.05 0.04 0.04 0.04 0.03 0.03 0.04 0.05 0.05 0.05 0.04 0.04 0.03 0.04 0.02 0.02 0.01 0.02 0.02 0.01 0.01 0.01 0.00 0.00 0.00 0.00 0.00 0.00 0.00 0.00 0.00 0.00 0.01 0.01 0.01
0.03 0.04 0.04 0.04 0.04 0.04 0.04 0.02 0.03 0.04 0.05 0.06 0.06 0.05 0.05 0.03 0.04 0.02 0.02 0.01 0.01 0.02 0.02 0.01 0.01 0.01 0.00 0.00 0.00 0.00 0.00 0.00 0.00 0.00 0.00 0.00 0.00 0.00
0.04 0.04 0.04 0.05 0.04 0.05 0.04 0.04 0.04 0.04 0.05 0.06 0.06 0.06 0.06 0.03 0.04 0.03 0.02 0.02 0.01 0.02 0.02 0.01 0.01 0.01 0.01 0.00 0.00 0.00 0.00 0.00 0.00 0.00 0.00 0.00 0.00 0.00
0.04 0.04 0.05 0.05 0.04 0.05 0.06 0.05 0.05 0.05 0.06 0.06 0.05 0.06 0.08 0.05 0.05 0.04 0.03 0.03 0.02 0.02 0.02 0.01 0.01 0.01 0.00 0.01 0.01 0.00 0.00 0.00 0.00 0.00 0.00 0.00 0.00 0.00
0.05 0.05 0.05 0.05 0.05 0.05 0.04 0.04 0.04 0.05 0.05 0.05 0.05 0.06 0.09 0.07 0.05 0.05 0.03 0.03 0.03 0.02 0.02 0.02 0.01 0.01 0.01 0.01 0.01 0.01 0.01 0.00 0.00 0.00 0.00 0.00 0.00 0.00
0.05 0.05 0.04 0.03 0.03 0.02 0.02 0.02 0.02 0.03 0.04 0.04 0.04 0.05 0.06 0.06 0.05 0.05 0.04 0.04 0.04 0.04 0.03 0.02 0.01 0.02 0.02 0.02 0.02 0.01 0.01 0.01 0.01 0.01 0.00 0.00 0.00 0.01
0.05 0.05 0.03 0.02 0.02 0.01 0.02 0.02 0.01 0.02 0.03 0.03 0.04 0.04 0.04 0.04 0.04 0.04 0.05 0.05 0.04 0.04 0.05 0.04 0.02 0.02 0.01 0.01 0.01 0.01 0.01 0.01 0.01 0.01 0.01 0.01 0.01 0.01
0.04 0.04 0.04 0.03 0.02 0.02 0.02 0.02 0.02 0.02 0.02 0.02 0.03 0.03 0.03 0.03 0.04 0.04 0.04 0.05 0.05 0.05 0.05 0.05 0.04 0.03 0.02 0.02 0.01 0.01 0.01 0.01 0.01 0.01 0.01 0.01 0.01 0.01
0.04 0.03 0.03 0.03 0.03 0.03 0.03 0.03 0.02 0.02 0.02 0.01 0.01 0.02 0.01 0.02 0.02 0.04 0.05 0.05 0.05 0.06 0.06 0.05 0.04 0.04 0.04 0.03 0.01 0.01 0.01 0.01 0.01 0.01 0.01 0.01 0.00 0.01
0.04 0.03 0.03 0.03 0.02 0.02 0.02 0.03 0.03 0.03 0.02 0.02 0.02 0.02 0.01 0.01 0.02 0.03 0.04 0.05 0.06 0.06 0.06 0.05 0.05 0.05 0.04 0.03 0.02 0.03 0.03 0.02 0.01 0.01 0.01 0.01 0.01 0.01
0.04 0.03 0.03 0.03 0.03 0.03 0.03 0.03 0.03 0.03 0.03 0.02 0.02 0.03 0.03 0.03 0.03 0.04 0.04 0.04 0.05 0.05 0.05 0.05 0.05 0.06 0.05 0.04 0.04 0.04 0.04 0.04 0.03 0.02 0.01 0.01 0.01 0.01
0.03 0.03 0.03 0.03 0.04 0.04 0.02 0.02 0.01 0.01 0.02 0.02 0.03 0.04 0.05 0.05 0.05 0.05 0.05 0.04 0.04 0.05 0.06 0.06 0.05 0.05 0.06 0.06 0.04 0.04 0.04 0.05 0.04 0.03 0.03 0.02 0.01 0.01
0.02 0.02 0.02 0.03 0.03 0.02 0.01 0.01 0.01 0.01 0.02 0.02 0.03 0.04 0.05 0.06 0.06 0.05 0.05 0.04 0.04 0.05 0.04 0.04 0.04 0.05 0.05 0.05 0.05 0.05 0.05 0.04 0.04 0.04 0.04 0.04 0.02 0.02
0.01 0.01 0.01 0.02 0.01 0.01 0.01 0.01 0.02 0.02 0.02 0.03 0.03 0.03 0.05 0.05 0.05 0.05 0.04 0.04 0.04 0.04 0.03 0.03 0.03 0.05 0.05 0.05 0.05 0.05 0.05 0.05 0.04 0.04 0.04 0.04 0.04 0.03
0.01 0.01 0.01 0.01 0.01 0.01 0.02 0.02 0.02 0.02 0.03 0.03 0.04 0.04 0.05 0.05 0.05 0.05 0.05 0.04 0.04 0.03 0.03 0.03 0.03 0.04 0.04 0.05 0.06 0.05 0.05 0.05 0.04 0.04 0.04 0.05 0.04 0.03
0.01 0.02 0.02 0.02 0.02 0.02 0.03 0.03 0.03 0.03 0.03 0.04 0.04 0.04 0.04 0.03 0.03 0.04 0.04 0.04 0.04 0.03 0.03 0.03 0.03 0.04 0.05 0.05 0.04 0.04 0.05 0.05 0.04 0.04 0.04 0.04 0.04 0.04
0.01 0.01 0.01 0.01 0.01 0.01 0.02 0.02 0.02 0.02 0.02 0.03 0.03 0.03 0.03 0.03 0.02 0.02 0.02 0.03 0.04 0.03 0.02 0.02 0.02 0.03 0.04 0.04 0.03 0.02 0.03 0.04 0.04 0.03 0.02 0.02 0.02 0.02
0.01 0.01 0.01 0.01 0.01 0.01 0.01 0.02 0.02 0.01 0.01 0.02 0.02 0.02 0.02 0.03 0.02 0.02 0.02 0.03 0.03 0.03 0.02 0.01 0.01 0.02 0.03 0.03 0.03 0.02 0.02 0.02 0.02 0.02 0.02 0.02 0.02 0.02
0.01 0.01 0.02 0.02 0.02 0.02 0.02 0.02 0.02 0.02 0.02 0.02 0.02 0.02 0.02 0.02 0.03 0.02 0.02 0.03 0.03 0.03 0.02 0.01 0.01 0.01 0.02 0.03 0.03 0.03 0.03 0.02 0.03 0.03 0.02 0.02 0.02 0.02
0.01 0.01 0.01 0.01 0.02 0.03 0.04 0.03 0.03 0.03 0.02 0.02 0.02 0.01 0.02 0.02 0.03 0.03 0.02 0.02 0.02 0.02 0.02 0.02 0.02 0.02 0.02 0.02 0.02 0.02 0.03 0.02 0.02 0.02 0.02 0.03 0.02 0.02
0.01 0.01 0.01 0.01 0.01 0.02 0.03 0.03 0.02 0.02 0.02 0.01 0.02 0.02 0.02 0.02 0.03 0.03 0.03 0.03 0.02 0.01 0.02 0.02 0.02 0.02 0.02 0.02 0.02 0.03 0.03 0.03 0.03 0.02 0.01 0.02 0.01 0.01
MSLP
1008.40 1008.33 1008.37 1008.53 1008.82 1009.22 1009.71 1010.25 1010.81 1011.36 1011.89 1012.36 1012.79 1013.18 1013.52 1013.82 1014.11 1014.38 1014.64 1014.89 1015.14 1015.38 1015.63 1015.88 1016.13 1016.38 1016.65 1016.92 1017.21 1017.52 1017.83 1018.14 1018.44 1018.72 1018.97 1019.17 1019.30 1019.38
1007.71 1007.61 1007.63 1007.78 1008.05 1008.47 1008.97 1009.55 1010.16 1010.76 1011.34 1011.89 1012.38 1012.82 1013.21 1013.57 1013.91 1014.22 1014.52 1014.81 1015.09 1015.36 1015.63 1015.89 1016.15 1016.41 1016.68 1016.95 1017.24 1017.54 1017.85 1018.16 1018.46 1018.73 1018.97 1019.16 1019.28 1019.34
1007.10 1007.00 1007.02 1007.17 1007.46 1007.88 1008.41 1009.01 1009.64 1010.28 1010.90 1011.49 1012.02 1012.51 1012.95 1013.36 1013.75 1014.11 1014.45 1014.78 1015.09 1015.39 1015.68 1015.96 1016.23 1016.49 1016.76 1017.04 1017.33 1017.63 1017.93 1018.23 1018.51 1018.77 1018.99 1019.16 1019.27 1019.31
1006.61 1006.54 1006.58 1006.75 1007.06 1007.50 1008.05 1008.66 1009.31 1009.97 1010.61 1011.21 1011.77 1012.29 1012.77 1013.22 1013.64 1014.04 1014.43 1014.79 1015.14 1015.46 1015.77 1016.05 1016.33 1016.60 1016.87 1017.14 1017.43 1017.72 1018.01 1018.30 1018.57 1018.82 1019.02 1019.16 1019.25 1019.27
1006.29 1006.25 1006.33 1006.54 1006.89 1007.37 1007.93 1008.55 1009.20 1009.85 1010.49 1011.09 1011.65 1012.17 1012.67 1013.14 1013.59 1014.02 1014.43 1014.82 1015.18 1015.52 1015.83 1016.12 1016.40 1016.66 1016.93 1017.20 1017.48 1017.77 1018.05 1018.34 1018.60 1018.82 1019.01 1019.13 1019.20 1019.21
1006.14 1006.15 1006.28 1006.55 1006.95 1007.45 1008.03 1008.66 1009.29 1009.93 1010.53 1011.11 1011.65 1012.16 1012.65 1013.11 1013.57 1014.00 1014.42 1014.82 1015.19 1015.53 1015.83 1016.12 1016.38 1016.64 1016.89 1017.16 1017.43 1017.72 1018.00 1018.28 1018.53 1018.75 1018.92 1019.03 1019.08 1019.08
1006.16 1006.22 1006.42 1006.75 1007.19 1007.73 1008.32 1008.93 1009.55 1010.15 1010.71 1011.24 1011.74 1012.21 1012.66 1013.11 1013.54 1013.96 1014.37 1014.75 1015.11 1015.43 1015.72 1015.99 1016.24 1016.48 1016.73 1016.98 1017.25 1017.54 1017.82 1018.10 1018.35 1018.57 1018.73 1018.84 1018.89 1018.88
1006.33 1006.46 1006.71 1007.10 1007.58 1008.14 1008.73 1009.32 1009.90 1010.45 1010.96 1011.42 1011.86 1012.27 1012.68 1013.08 1013.47 1013.86 1014.24 1014.59 1014.92 1015.22 1015.49 1015.74 1015.97 1016.20 1016.43 1016.68 1016.95 1017.23 1017.51 1017.79 1018.05 1018.27 1018.43 1018.54 1018.58 1018.57
1006.63 1006.81 1007.12 1007.54 1008.05 1008.61 1009.18 1009.75 1010.28 1010.76 1011.20 1011.60 1011.96 1012.31 1012.65 1012.99 1013.33 1013.68 1014.01 1014.33 1014.63 1014.90 1015.15 1015.38 1015.59 1015.81 1016.03 1016.28 1016.54 1016.82 1017.11 1017.39 1017.64 1017.86 1018.03 1018.14 1018.18 1018.18
1007.05 1007.27 1007.61 1008.05 1008.55 1009.08 1009.62 1010.13 1010.60 1011.01 1011.38 1011.70 1011.99 1012.27 1012.55 1012.83 1013.13 1013.42 1013.71 1014.00 1014.27 1014.52 1014.75 1014.96 1015.17 1015.38 1015.60 1015.84 1016.10 1016.38 1016.66 1016.93 1017.18 1017.39 1017.56 1017.66 1017.71 1017.70
1007.56 1007.80 1008.14 1008.56 1009.03 1009.51 1009.98 1010.42 1010.82 1011.16 1011.46 1011.71 1011.94 1012.17 1012.39 1012.62 1012.87 1013.13 1013.39 1013.64 1013.89 1014.13 1014.35 1014.56 1014.77 1014.98 1015.20 1015.44 1015.69 1015.96 1016.22 1016.48 1016.71 1016.90 1017.05 1017.15 1017.19 1017.19
1008.14 1008.37 1008.68 1009.04 1009.44 1009.85 1010.24 1010.60 1010.92 1011.19 1011.43 1011.63 1011.82 1012.00 1012.19 1012.39 1012.61 1012.84 1013.08 1013.32 1013.56 1013.80 1014.02 1014.24 1014.46 1014.68 1014.90 1015.13 1015.37 1015.61 1015.85 1016.08 1016.28 1016.44 1016.57 1016.64 1016.68 1016.67
1008.72 1008.92 1009.17 1009.46 1009.77 1010.08 1010.38 1010.66 1010.90 1011.12 1011.31 1011.49 1011.65 1011.81 1011.99 1012.18 1012.38 1012.60 1012.83 1013.07 1013.32 1013.56 1013.80 1014.03 1014.26 1014.49 1014.71 1014.93 1015.15 1015.37 1015.57 1015.75 1015.90 1016.03 1016.12 1016.17 1016.19 1016.18
1009.27 1009.41 1009.58 1009.77 1009.97 1010.18 1010.39 1010.59 1010.78 1010.96 1011.13 1011.29 1011.46 1011.63 1011.81 1012.00 1012.21 1012.43 1012.67 1012.91 1013.16 1013.42 1013.67 1013.92 1014.16 1014.39 1014.62 1014.83 1015.02 1015.20 1015.35 1015.48 1015.58 1015.66 1015.71 1015.73 1015.74 1015.72
1009.69 1009.76 1009.84 1009.93 1010.04 1010.15 1010.28 1010.42 1010.58 1010.74 1010.91 1011.09 1011.27 1011.46 1011.66 1011.87 1012.09 1012.32 1012.56 1012.81 1013.07 1013.33 1013.60 1013.86 1014.11 1014.34 1014.56 1014.76 1014.92 1015.06 1015.16 1015.24 1015.30 1015.33 1015.34 1015.34 1015.33 1015.31
1009.93 1009.92 1009.92 1009.92 1009.94 1009.98 1010.05 1010.16 1010.30 1010.47 1010.66 1010.86 1011.08 1011.29 1011.52 1011.75 1011.98 1012.21 1012.46 1012.71 1012.97 1013.24 1013.51 1013.78 1014.03 1014.27 1014.47 1014.65 1014.79 1014.89 1014.95 1014.99 1015.00 1015.00 1014.98 1014.97 1014.95 1014.94
1009.92 1009.85 1009.78 1009.72 1009.68 1009.67 1009.72 1009.81 1009.96 1010.14 1010.36 1010.60 1010.85 1011.11 1011.35 1011.59 1011.83 1012.06 1012.30 1012.55 1012.80 1013.07 1013.34 1013.60 1013.86 1014.09 1014.29 1014.45 1014.57 1014.64 1014.68 1014.69 1014.67 1014.65 1014.62 1014.60 1014.59 1014.59
1009.66 1009.55 1009.44 1009.33 1009.26 1009.24 1009.28 1009.39 1009.55 1009.77 1010.02 1010.29 1010.57 1010.84 1011.10 1011.35 1011.58 1011.81 1012.04 1012.27 1012.51 1012.77 1013.03 1013.29 1013.55 1013.77 1013.97 1014.12 1014.22 1014.29 1014.31 1014.31 1014.29 1014.26 1014.24 1014.23 1014.23 1014.24
1009.18 1009.05 1008.92 1008.81 1008.73 1008.72 1008.77 1008.90 1009.09 1009.33 1009.61 1009.90 1010.20 1010.48 1010.74 1010.99 1011.21 1011.42 1011.64 1011.86 1012.09 1012.34 1012.60 1012.86 1013.10 1013.33 1013.52 1013.67 1013.78 1013.84 1013.87 1013.87 1013.86 1013.85 1013.84 1013.85 1013.87 1013.90
1008.57 1008.44 1008.30 1008.20 1008.14 1008.14 1008.22 1008.36 1008.57 1008.83 1009.12 1009.42 1009.72 1010.00 1010.26 1010.49 1010.71 1010.91 1011.12 1011.33 1011.56 1011.81 1012.07 1012.33 1012.58 1012.81 1013.00 1013.15 1013.26 1013.34 1013.38 1013.39 1013.40 1013.41 1013.43 1013.46 1013.50 1013.54
1007.90 1007.77 1007.65 1007.57 1007.52 1007.55 1007.64 1007.80 1008.01 1008.27 1008.56 1008.86 1009.15 1009.42 1009.67 1009.90 1010.11 1010.32 1010.53 1010.75 1010.98 1011.24 1011.50 1011.77 1012.02 1012.26 1012.46 1012.62 1012.73 1012.82 1012.87 1012.90 1012.93 1012.96 1013.01 1013.06 1013.11 1013.17
1007.25 1007.13 1007.03 1006.96 1006.93 1006.97 1007.06 1007.22 1007.43 1007.68 1007.95 1008.23 1008.51 1008.77 1009.02 1009.25 1009.47 1009.69 1009.92 1010.16 1010.41 1010.69 1010.97 1011.24 1011.50 1011.74 1011.94 1012.10 1012.22 1012.31 1012.38 1012.43 1012.47 1012.53 1012.59 1012.66 1012.73 1012.78
1006.67 1006.56 1006.47 1006.40 1006.38 1006.41 1006.50 1006.65 1006.84 1007.06 1007.31 1007.57 1007.84 1008.09 1008.35 1008.59 1008.84 1009.09 1009.34 1009.62 1009.90 1010.20 1010.49 1010.78 1011.04 1011.27 1011.47 1011.63 1011.75 1011.84 1011.91 1011.97 1012.03 1012.10 1012.17 1012.26 1012.34 1012.40
Thickness
5688 5687 5686 5687 5687 5686 5685 5681 5675 5670 5672 5677 5680 5681 5680 5678 5675 5673 5671 5668 5666 5663 5661 5660 5658 5657 5657 5656 5656 5655 5653 5652 5651 5650 5649 5648 5648 5648
5684 5684 5683 5683 5683 5683 5682 5680 5678 5673 5669 5674 5676 5677 5676 5675 5672 5671 5669 5666 5664 5662 5660 5658 5656 5655 5654 5653 5652 5651 5649 5647 5646 5645 5644 5643 5642 5642
5682 5681 5680 5679 5678 5678 5678 5677 5675 5673 5668 5670 5674 5674 5673 5671 5668 5667 5666 5664 5662 5661 5659 5657 5655 5653 5652 5650 5649 5647 5645 5643 5641 5640 5639 5638 5637 5637
5679 5678 5677 5677 5675 5674 5673 5672 5671 5671 5667 5665 5667 5669 5668 5668 5666 5665 5664 5663 5662 5661 5659 5657 5655 5653 5651 5649 5647 5644 5641 5639 5637 5636 5634 5633 5632 5631
5677 5676 5675 5673 5671 5670 5669 5668 5668 5668 5666 5663 5663 5665 5665 5665 5663 5662 5662 5661 5661 5660 5658 5656 5654 5652 5650 5647 5645 5642 5639 5636 5634 5631 5630 5628 5626 5625
5675 5674 5673 5671 5669 5668 5667 5665 5664 5663 5662 5660 5659 5660 5660 5661 5659 5657 5656 5657 5658 5658 5656 5655 5653 5651 5649 5646 5643 5639 5636 5633 5630 5628 5626 5624 5622 5620
5672 5672 5672 5670 5668 5666 5665 5663 5661 5658 5657 5656 5656 5655 5655 5654 5653 5654 5652 5652 5654 5655 5653 5653 5651 5648 5646 5643 5640 5637 5634 5631 5627 5624 5622 5620 5618 5616
5669 5669 5669 5668 5666 5665 5663 5661 5659 5656 5654 5653 5653 5652 5652 5653 5652 5651 5649 5646 5645 5651 5649 5649 5649 5646 5646 5643 5640 5636 5632 5629 5625 5622 5619 5617 5615 5613
5667 5667 5667 5668 5665 5663 5660 5658 5657 5656 5654 5653 5651 5651 5651 5651 5649 5647 5646 5644 5644 5647 5646 5644 5645 5644 5644 5642 5638 5634 5630 5626 5622 5619 5617 5614 5612 5610
5667 5666 5665 5663 5663 5660 5658 5657 5656 5656 5654 5652 5651 5652 5652 5650 5648 5646 5644 5644 5645 5645 5644 5640 5641 5640 5641 5638 5635 5632 5628 5624 5620 5617 5614 5612 5609 5607
5667 5666 5664 5662 5659 5657 5656 5655 5654 5654 5653 5652 5651 5651 5650 5648 5646 5642 5641 5639 5638 5641 5642 5638 5638 5636 5635 5634 5632 5629 5625 5621 5618 5615 5612 5609 5607 5605
5665 5665 5662 5660 5657 5655 5654 5652 5651 5651 5651 5649 5648 5648 5647 5647 5645 5642 5640 5637 5636 5636 5639 5636 5633 5631 5628 5630 5628 5625 5622 5619 5616 5613 5610 5607 5604 5601
5664 5663 5662 5659 5656 5653 5652 5651 5650 5648 5648 5647 5646 5646 5646 5645 5644 5642 5641 5638 5635 5634 5636 5633 5629 5627 5623 5622 5623 5622 5619 5616 5613 5611 5608 5605 5602 5599
5661 5662 5661 5657 5654 5651 5650 5649 5647 5645 5645 5644 5644 5644 5645 5644 5644 5643 5641 5639 5637 5635 5633 5630 5626 5623 5619 5617 5616 5617 5616 5614 5612 5609 5607 5604 5600 5597
5660 5658 5656 5654 5652 5650 5648 5647 5644 5643 5643 5642 5643 5644 5645 5644 5644 5642 5640 5638 5636 5634 5632 5629 5625 5621 5618 5614 5613 5612 5610 5610 5609 5607 5604 5601 5598 5595
5655 5654 5653 5651 5649 5649 5648 5645 5644 5644 5644 5643 5643 5644 5644 5643 5641 5640 5636 5634 5631 5630 5629 5626 5623 5619 5615 5613 5610 5608 5607 5605 5604 5603 5601 5599 5597 5595
5652 5651 5651 5650 5648 5649 5648 5647 5646 5644 5643 5643 5642 5641 5641 5639 5638 5637 5635 5632 5628 5626 5624 5623 5621 5618 5614 5610 5607 5605 5604 5602 5601 5599 5596 5594 5593 5592
5648 5649 5650 5650 5650 5650 5649 5648 5647 5646 5645 5643 5641 5639 5638 5636 5636 5635 5632 5629 5626 5624 5622 5620 5617 5612 5609 5607 5606 5603 5601 5599 5598 5595 5592 5589 5587 5587
5645 5647 5648 5649 5650 5651 5650 5649 5647 5646 5645 5642 5640 5638 5636 5635 5633 5631 5629 5627 5625 5622 5620 5618 5614 5608 5603 5601 5603 5601 5597 5595 5593 5591 5588 5586 5583 5582
5645 5646 5647 5649 5649 5649 5649 5648 5647 5645 5643 5641 5639 5637 5635 5633 5630 5628 5627 5625 5622 5620 5617 5615 5611 5608 5603 5600 5599 5597 5595 5592 5590 5587 5585 5582 5580 5578
5645 5646 5648 5649 5649 5649 5648 5647 5645 5643 5641 5639 5637 5635 5633 5631 5628 5627 5625 5623 5620 5618 5614 5611 5610 5607 5604 5600 5596 5593 5592 5590 5588 5584 5582 5578 5575 5573
5644 5645 5647 5648 5647 5647 5646 5644 5642 5640 5638 5636 5634 5632 5631 5629 5627 5625 5623 5621 5618 5616 5613 5610 5607 5604 5600 5596 5592 5589 5588 5586 5584 5581 5578 5576 5572 5570
5642 5643 5644 5644 5645 5644 5643 5641 5639 5637 5635 5633 5631 5630 5628 5626 5624 5622 5621 5620 5617 5614 5610 5607 5603 5600 5597 5594 5590 5587 5585 5582 5580 5577 5574 5573 5571 5570